When you browse on this site, cookies collect data to enhance your experience and personalize the content and advertising you see.
Visit our Privacy Policy to learn more. By continuing to use the site, you agree to this use of cookies and data.
  • In Hungary
  • List of Countries
  • For 7 days
  • Water Temperature
  • Satellite Maps
  • Weather Map
  • News
  • Weather Widgets
  • user-avatar
    Login

    Hourly Weather Djougou

    Today, 20 February, Wednesday

    Time Temperature Precipitation Wind Pressure Humidity
    00:00 +30°C° 0 mm 2 mps 719 mmHg 10%
    01:00 +29°C° 0 mm 2 mps 718 mmHg 11%
    02:00 +28°C° 0 mm 2 mps 718 mmHg 11%
    03:00 +28°C° 0 mm 2 mps 718 mmHg 11%
    04:00 +27°C° 0 mm 1 mps 718 mmHg 18%
    05:00 +27°C° 0 mm 1 mps 719 mmHg 24%
    06:00 +26°C° 0 mm 1 mps 719 mmHg 31%
    07:00 +28°C° 0 mm 1 mps 719 mmHg 37%
    08:00 +30°C° 0 mm 1 mps 720 mmHg 42%
    09:00 +32°C° 0 mm 2 mps 721 mmHg 48%
    10:00 +36°C° 0 mm 2 mps 721 mmHg 38%
    11:00 +38°C° 0 mm 2 mps 720 mmHg 29%
    12:00 +41°C° 0 mm 2 mps 720 mmHg 19%
    13:00 +41°C° 0 mm 1 mps 720 mmHg 17%
    14:00 +42°C° 0 mm 1 mps 719 mmHg 15%
    15:00 +43°C° 0 mm 1 mps 718 mmHg 13%
    16:00 +41°C° 0 mm 1 mps 718 mmHg 13%
    17:00 +40°C° 0 mm 1 mps 718 mmHg 13%
    18:00 +37°C° 0 mm 1 mps 718 mmHg 13%
    19:00 +36°C° 0 mm 1 mps 719 mmHg 13%
    20:00 +35°C° 0 mm 1 mps 719 mmHg 12%
    21:00 +35°C° 0 mm 2 mps 720 mmHg 12%
    22:00 +33°C° 0 mm 1 mps 720 mmHg 12%
    23:00 +32°C° 0 mm 1 mps 720 mmHg 12%

    Tomorrow, 21 February, Thursday

    Time Temperature Precipitation Wind Pressure Humidity
    00:00 +31°C° 0 mm 1 mps 720 mmHg 12%
    01:00 +30°C° 0 mm 1 mps 720 mmHg 12%
    02:00 +30°C° 0 mm 1 mps 720 mmHg 13%
    03:00 +29°C° 0 mm 1 mps 719 mmHg 14%
    04:00 +29°C° 0 mm 1 mps 720 mmHg 23%
    05:00 +28°C° 0 mm 1 mps 720 mmHg 32%
    06:00 +28°C° 0 mm 2 mps 720 mmHg 41%
    07:00 +29°C° 0 mm 2 mps 721 mmHg 44%
    08:00 +31°C° 0 mm 3 mps 722 mmHg 47%
    09:00 +34°C° 0 mm 3 mps 723 mmHg 49%
    10:00 +36°C° 0 mm 2 mps 722 mmHg 40%
    11:00 +39°C° 0 mm 2 mps 722 mmHg 31%
    12:00 +41°C° 0 mm 1 mps 722 mmHg 22%
    13:00 +42°C° 0 mm 1 mps 721 mmHg 20%
    14:00 +43°C° 0 mm 1 mps 720 mmHg 17%
    15:00 +41°C° 0 mm 0 mps 719 mmHg 15%
    16:00 +42°C° 0 mm 1 mps 719 mmHg 16%
    17:00 +40°C° 0 mm 1 mps 719 mmHg 17%
    18:00 +39°C° 0 mm 1 mps 719 mmHg 18%
    19:00 +37°C° 0 mm 1 mps 720 mmHg 19%
    20:00 +36°C° 0 mm 1 mps 720 mmHg 20%
    21:00 +35°C° 0 mm 1 mps 721 mmHg 21%
    22:00 +35°C° 0 mm 1 mps 721 mmHg 21%
    23:00 +34°C° 0 mm 1 mps 721 mmHg 21%

    Day after tomorrow, 22 February, Friday

    Time Temperature Precipitation Wind Pressure Humidity
    00:00 +33°C° 0 mm 1 mps 721 mmHg 21%
    01:00 +33°C° 0 mm 1 mps 720 mmHg 21%
    02:00 +33°C° 0 mm 1 mps 720 mmHg 21%
    03:00 +33°C° 0 mm 1 mps 720 mmHg 21%
    04:00 +32°C° 0 mm 1 mps 720 mmHg 26%
    05:00 +31°C° 0 mm 1 mps 720 mmHg 31%
    06:00 +30°C° 0 mm 1 mps 720 mmHg 36%
    07:00 +31°C° 0 mm 1 mps 721 mmHg 34%
    08:00 +33°C° 0 mm 1 mps 722 mmHg 33%
    09:00 +36°C° 0 mm 2 mps 722 mmHg 31%
    10:00 +37°C° 0 mm 1 mps 722 mmHg 25%
    11:00 +41°C° 0 mm 1 mps 722 mmHg 20%
    12:00 +44°C° 0 mm 1 mps 721 mmHg 14%
    13:00 +44°C° 0 mm 1 mps 720 mmHg 13%
    14:00 +44°C° 0 mm 1 mps 719 mmHg 12%
    15:00 +44°C° 0 mm 1 mps 718 mmHg 11%
    16:00 +42°C° 0 mm 1 mps 718 mmHg 12%
    17:00 +41°C° 0 mm 1 mps 718 mmHg 13%
    18:00 +39°C° 0 mm 1 mps 718 mmHg 13%
    19:00 +37°C° 0 mm 1 mps 719 mmHg 14%
    20:00 +33°C° 0 mm 0 mps 719 mmHg 15%
    21:00 +32°C° 0 mm 0 mps 720 mmHg 16%
    22:00 +32°C° 0 mm 0 mps 720 mmHg 16%
    23:00 +31°C° 0 mm 0 mps 720 mmHg 17%

    23 February, Saturday

    Time Temperature Precipitation Wind Pressure Humidity
    00:00 +30°C° 0 mm 0 mps 720 mmHg 17%
    01:00 +30°C° 0 mm 0 mps 719 mmHg 22%
    02:00 +31°C° 0 mm 1 mps 719 mmHg 27%
    03:00 +31°C° 0 mm 1 mps 718 mmHg 31%
    04:00 +30°C° 0.1 mm 1 mps 719 mmHg 38%
    05:00 +29°C° 0.1 mm 1 mps 719 mmHg 45%
    06:00 +28°C° 0.1 mm 1 mps 719 mmHg 51%
    07:00 +30°C° 0 mm 2 mps 720 mmHg 50%
    08:00 +31°C° 0 mm 2 mps 721 mmHg 48%
    09:00 +34°C° 0 mm 2 mps 721 mmHg 46%
    10:00 +36°C° 0 mm 2 mps 721 mmHg 36%
    11:00 +39°C° 0 mm 2 mps 721 mmHg 26%
    12:00 +41°C° 0 mm 1 mps 720 mmHg 16%
    13:00 +41°C° 0 mm 1 mps 719 mmHg 14%
    14:00 +42°C° 0 mm 1 mps 718 mmHg 12%
    15:00 +42°C° 0 mm 2 mps 717 mmHg 9%
    16:00 +41°C° 0 mm 2 mps 717 mmHg 9%
    17:00 +39°C° 0 mm 1 mps 717 mmHg 8%
    18:00 +37°C° 0 mm 1 mps 718 mmHg 8%
    19:00 +35°C° 0 mm 1 mps 718 mmHg 8%
    20:00 +34°C° 0 mm 1 mps 718 mmHg 8%
    21:00 +33°C° 0 mm 1 mps 719 mmHg 8%
    22:00 +32°C° 0 mm 1 mps 719 mmHg 8%
    23:00 +31°C° 0 mm 1 mps 718 mmHg 9%

    24 February, Sunday

    Time Temperature Precipitation Wind Pressure Humidity
    00:00 +30°C° 0 mm 1 mps 718 mmHg 10%
    01:00 +29°C° 0 mm 1 mps 718 mmHg 18%
    02:00 +29°C° 0 mm 1 mps 717 mmHg 26%
    03:00 +28°C° 0 mm 1 mps 717 mmHg 34%
    04:00 +25°C° 0 mm 0 mps 717 mmHg 38%
    05:00 +25°C° 0 mm 0 mps 718 mmHg 42%
    06:00 +25°C° 0 mm 0 mps 718 mmHg 47%
    07:00 +29°C° 0 mm 1 mps 719 mmHg 45%
    08:00 +31°C° 0 mm 1 mps 720 mmHg 43%
    09:00 +33°C° 0 mm 1 mps 721 mmHg 41%
    10:00 +35°C° 0 mm 1 mps 720 mmHg 34%
    11:00 +39°C° 0 mm 1 mps 720 mmHg 27%
    12:00 +39°C° 0 mm 0 mps 720 mmHg 19%
    13:00 +39°C° 0 mm 0 mps 719 mmHg 18%
    14:00 +42°C° 0 mm 1 mps 718 mmHg 17%
    15:00 +42°C° 0 mm 1 mps 717 mmHg 15%
    16:00 +41°C° 0 mm 1 mps 717 mmHg 16%
    17:00 +39°C° 0 mm 1 mps 717 mmHg 17%
    18:00 +37°C° 0 mm 1 mps 717 mmHg 17%
    19:00 +36°C° 0 mm 1 mps 718 mmHg 17%
    20:00 +35°C° 0 mm 1 mps 718 mmHg 17%
    21:00 +35°C° 0 mm 1 mps 719 mmHg 16%
    22:00 +34°C° 0 mm 1 mps 718 mmHg 14%
    23:00 +33°C° 0 mm 1 mps 718 mmHg 11%

    25 February, Monday

    Time Temperature Precipitation Wind Pressure Humidity
    00:00 +34°C° 0 mm 2 mps 718 mmHg 9%
    01:00 +31°C° 0 mm 2 mps 718 mmHg 8%
    02:00 +30°C° 0 mm 2 mps 717 mmHg 6%
    03:00 +29°C° 0 mm 2 mps 717 mmHg 5%
    04:00 +28°C° 0 mm 2 mps 717 mmHg 5%
    05:00 +28°C° 0 mm 2 mps 718 mmHg 5%
    06:00 +27°C° 0 mm 3 mps 718 mmHg 5%
    07:00 +29°C° 0 mm 3 mps 719 mmHg 7%
    08:00 +31°C° 0 mm 3 mps 719 mmHg 9%
    09:00 +34°C° 0 mm 3 mps 720 mmHg 10%
    10:00 +36°C° 0 mm 3 mps 719 mmHg 10%
    11:00 +38°C° 0 mm 2 mps 719 mmHg 10%
    12:00 +40°C° 0 mm 2 mps 719 mmHg 10%
    13:00 +40°C° 0 mm 2 mps 718 mmHg 9%
    14:00 +41°C° 0 mm 2 mps 717 mmHg 8%
    15:00 +42°C° 0 mm 1 mps 717 mmHg 8%
    16:00 +40°C° 0 mm 1 mps 717 mmHg 8%
    17:00 +39°C° 0 mm 2 mps 717 mmHg 8%
    18:00 +37°C° 0 mm 2 mps 717 mmHg 8%
    19:00 +36°C° 0 mm 2 mps 718 mmHg 8%
    20:00 +34°C° 0 mm 2 mps 718 mmHg 8%
    21:00 +32°C° 0 mm 2 mps 718 mmHg 8%
    22:00 +31°C° 0 mm 2 mps 718 mmHg 8%
    23:00 +30°C° 0 mm 2 mps 718 mmHg 9%
    Show more